Location: Newark
(47.3000°N, 8.0500°E)
Time: 08:03:07
(UTC+00:00)

OTV 5 (USA 277) - Pass Details

Date: 25 August 2019
Orbit: 295 x 339 km, 54.5° (Epoch: 08 September)

Event Time Altitude Azimuth Distance (km) Brightness Sun altitude
Rises 19:42:11 0° 231° (SW) 1,997 ? -13.2°
Reaches altitude 10° 19:44:07 10° 229° (SW) 1,170 ? -13.5°
Maximum altitude 19:46:41 69° 146° (SE) 323 ? -13.8°
Enters shadow 19:48:05 23° 66° (ENE) 688 ? -14.0°
